This demonstration page uses our WeatherBlox Daily Observations layout. Learn more.

Left ArrowRight Arrow

Hourly Observations for June 9, 2018

Temp ( °F °C ) Dew Point ( °F °C ) Humidity (%) Winds ( mph kmh ) Pressure ( in mb ) Visibility ( mi km ) Precip ( " mm )
12:53 am 00:53 Clear with Mist and Fog 65 18.3 65 18.3 100 100 Calm 30.13 1020 6 10 0.00 0.00
1:53 am 01:53 Clear with Mist and Fog 65 18.3 65 18.3 100 100 N 3 6 30.13 1020 6 10 0.00 0.00
2:53 am 02:53 Clear with Mist and Fog 64 17.8 64 17.8 100 100 Calm 30.11 1020 3 5 0.00 0.00
3:53 am 03:53 Clear with Mist and Fog 64 17.8 64 17.8 100 100 Calm 30.11 1020 5 8 0.00 0.00
4:53 am 04:53 Clear with Mist and Fog 65 18.3 65 18.3 100 100 Calm 30.10 1019 4 6 0.00 0.00
5:26 am 05:26 Clear with Mist and Fog 64 17.8 64 17.8 100 100 Calm 30.09 1019 3 4 0.00 0.00
5:50 am 05:50 Clear with Mist and Fog 64 18 64 18 100 100 Calm 30.09 1019 4 6 0.00 0.00
5:53 am 05:53 Clear with Mist and Fog 64 17.8 64 17.8 100 100 Calm 30.10 1019 4 6 0.00 0.00
6:29 am 06:29 Sunny with Mist and Fog 64 17.8 64 17.8 100 100 Calm 30.09 1019 2 3 0.00 0.00
6:53 am 06:53 Sunny with Mist and Fog 64 17.8 64 17.8 100 100 Calm 30.10 1019 3 4 0.00 0.00
7:14 am 07:14 Sunny with Mist and Fog 65 18.3 65 18.3 100 100 Calm 30.09 1019 3 5 0.00 0.00
7:21 am 07:21 Sunny with Mist and Fog 65 18.3 65 18.3 100 100 Calm 30.09 1019 3 4 0.00 0.00
7:31 am 07:31 Sunny with Mist and Fog 67 19.4 66 18.9 97 97 Calm 30.09 1019 3 5 0.00 0.00
7:53 am 07:53 Sunny 70 21.1 66 18.9 87 87 NE 5 7 30.12 1020 8 13 0.00 0.00
8:53 am 08:53 Sunny 72 22.2 66 18.9 82 82 E 3 6 30.11 1020 10 16 0.00 0.00
9:53 am 09:53 Sunny 76 24.4 67 19.4 74 74 E 5 7 30.10 1019 10 16 0.00 0.00
10:53 am 10:53 Sunny 79 26.1 68 20 69 69 E 3 6 30.09 1019 10 16 0.00 0.00
11:53 am 11:53 Sunny 83 28.3 70 21.1 65 65 Calm 30.09 1019 10 16 0.00 0.00
12:53 pm 12:53 Sunny 86 30 71 21.7 61 61 E 5 7 30.05 1018 10 16 0.00 0.00
1:53 pm 13:53 Sunny 89 31.7 71 21.7 55 55 VRB 5 7 30.03 1017 10 16 0.00 0.00
2:53 pm 14:53 Sunny 90 32.2 69 20.6 50 50 Calm 29.99 1016 10 16 0.00 0.00
3:53 pm 15:53 Mostly Sunny 90 32.2 68 20 48 48 SW 5 7 29.97 1015 10 16 0.00 0.00
4:46 pm 16:46 Sunny with Nearby Thunderstorms 89 31.7 67 19.4 48 48 SW 8 13 29.94 1014 10 16 0.00 0.00
4:53 pm 16:53 Partly Cloudy with Nearby Thunderstorms 89 31.7 67 19.4 48 48 WSW 14 22 29.97 1015 10 16 0.00 0.00
5:08 pm 17:08 Mostly Sunny 79 26.1 62 16.7 56 56 WSW 17 28 30.00 1016 10 16 0.00 0.00
5:15 pm 17:15 Mostly Cloudy with Nearby Thunderstorms 77 25 64 17.8 64 64 WSW 13 20 30.00 1016 7 11 0.00 0.03
5:33 pm 17:33 Mostly Cloudy with Thunderstorms 77 25 68 20 74 74 NNW 12 19 30.00 1016 10 16 0.01 0.25
5:49 pm 17:49 Mostly Cloudy with Nearby Thunderstorms 79 26 70 21 74 74 NNW 7 11 30.00 1016 10 16 0.01 0.25
5:53 pm 17:53 Mostly Cloudy with Nearby Thunderstorms 78 25.6 69 20.6 74 74 NNW 6 9 29.98 1015 10 16 0.01 0.25
6:16 pm 18:16 Mostly Sunny 79 26.1 69 20.6 72 72 NNW 3 6 29.97 1015 10 16 0.00 0.00
6:53 pm 18:53 Sunny 80 26.7 70 21.1 71 71 Calm 29.98 1015 10 16 0.00 0.00
7:53 pm 19:53 Sunny 78 25.6 70 21.1 76 76 E 7 11 29.95 1014 10 16 0.00 0.00
8:53 pm 20:53 Sunny 74 23.3 70 21.1 88 88 VRB 3 6 29.96 1014 9 14 0.00 0.00
9:36 pm 21:36 Mostly Clear 72 22.2 70 21.1 94 94 SSW 3 6 29.97 1015 10 16 0.00 0.00
9:53 pm 21:53 Mostly Clear 71 21.7 70 21.1 96 96 Calm 29.96 1015 8 13 0.00 0.00
10:53 pm 22:53 Clear 70 21.1 69 20.6 97 97 Calm 29.97 1015 9 14 0.00 0.00
11:53 pm 23:53 Clear 70 21.1 69 20.6 97 97 Calm 29.98 1015 9 14 0.00 0.00

Powered by AerisWeather